Weather History for Superior, WI

Change the Weather History Date:

Monday, May 12, 2014

  Actual Average Record
Temperature  
Mean Temperature 38 °F -  
Max Temperature 41 °F 55 °F 84 °F (1961)
Min Temperature 34 °F 37 °F 21 °F (1960)
Degree Days  
Heating Degree Days 28    
Moisture  
Dew Point 35 °F    
Average Humidity 96    
Maximum Humidity 99    
Minimum Humidity 72    
Precipitation  
Precipitation 1.19 in - - ()
Sea Level Pressure  
Sea Level Pressure 29.85 in    
Wind  
Wind Speed 14 mph (ENE)    
Max Wind Speed 23 mph    
Max Gust Speed 32 mph    
Visibility 5 miles    
Events Rain , Snow    
Averages and records for this station are not official NWS values.
T = Trace of Precipitation, MM = Missing Value Source: NWS Daily Summary

Daily Weather History Graph

Daily Weather History Graph

Search for Another Location

Airport:

Trip Planner

Search our weather history database for the weather conditions in past years. The results will help you decide how hot, cold, wet, or windy it might be!

Date:

Astronomy

May. 12, 2014 Rise Set
Actual Time 5:37 AM CDT 8:32 PM CDT
Civil Twilight 5:02 AM CDT 9:07 PM CDT
Nautical Twilight 4:17 AM CDT 9:53 PM CDT
Astronomical Twilight 3:23 AM CDT 10:47 PM CDT
Moon 6:23 PM CDT (5/12) 4:26 AM CDT (5/12)
Length of Visible Light 16h 05m
Length of Day
14h 54m
Waxing Gibbous, 95% of the Moon is Illuminated
May 12
Waxing Gibbous
May 14
Full
May 21
Last Quarter
May 28
New
Jun 5
First Quarter

Hourly Weather History & Observations

Time (CDT) Temp. Windchill Dew Point Humidity Pressure Visibility Wind Dir Wind Speed Gust Speed Precip Events Conditions
12:15 AM 41.4 °F 35.7 °F 32.9 °F 72% 29.94 in 10.0 mi ENE 9.2 mph - N/A   Overcast
12:35 AM 41.0 °F 34.7 °F 34.0 °F 76% 29.94 in 10.0 mi ENE 10.4 mph - N/A Rain Light Rain
12:55 AM 40.6 °F 33.8 °F 35.6 °F 82% 29.92 in 10.0 mi ENE 11.5 mph 16.1 mph 0.01 in Rain Light Rain
1:15 AM 41.2 °F 34.5 °F 36.0 °F 82% 29.91 in 10.0 mi ENE 11.5 mph 20.7 mph N/A Rain Light Rain
1:35 AM 41.0 °F 34.7 °F 36.3 °F 83% 29.91 in 10.0 mi ENE 10.4 mph 19.6 mph 0.03 in Rain Light Rain
1:55 AM 40.1 °F 33.6 °F 36.9 °F 88% 29.92 in 10.0 mi East 10.4 mph 20.7 mph 0.06 in Rain Rain
2:15 AM 39.6 °F 32.5 °F 36.9 °F 90% 29.91 in 10.0 mi East 11.5 mph 18.4 mph 0.01 in Rain Light Rain
2:35 AM 38.8 °F 29.7 °F 36.5 °F 91% 29.90 in 7.0 mi ENE 17.3 mph 23.0 mph 0.04 in Rain Light Rain
2:55 AM 37.9 °F 28.2 °F 36.5 °F 95% 29.88 in 7.0 mi ENE 18.4 mph 24.2 mph 0.07 in Rain Light Rain
3:15 AM 37.8 °F 29.0 °F 36.5 °F 95% 29.87 in 10.0 mi NE 15.0 mph 20.7 mph 0.01 in Rain Light Rain
3:35 AM 37.8 °F 30.7 °F 36.5 °F 95% 29.88 in 10.0 mi ENE 10.4 mph 20.7 mph 0.01 in Rain Light Rain
3:55 AM 37.8 °F 29.4 °F 36.5 °F 95% 29.88 in 7.0 mi ENE 13.8 mph 20.7 mph 0.04 in Rain Light Rain
4:15 AM 37.9 °F 29.2 °F 36.7 °F 95% 29.87 in 10.0 mi ENE 15.0 mph 27.6 mph 0.02 in Rain Light Rain
4:35 AM 37.9 °F 28.2 °F 36.9 °F 96% 29.86 in 5.0 mi ENE 18.4 mph 24.2 mph 0.09 in Rain Light Rain
4:55 AM 37.8 °F 28.6 °F 36.7 °F 96% 29.86 in 7.0 mi ENE 16.1 mph 26.5 mph 0.12 in Rain Light Rain
5:35 AM 37.6 °F 28.8 °F 36.5 °F 96% 29.87 in 10.0 mi ENE 15.0 mph 26.5 mph 0.01 in Rain Light Rain
5:55 AM 37.4 °F 27.8 °F 36.0 °F 95% 29.86 in 5.0 mi ENE 17.3 mph 26.5 mph 0.01 in Rain Light Rain
6:15 AM 37.0 °F 28.1 °F 36.0 °F 96% 29.86 in 5.0 mi ENE 15.0 mph 25.3 mph N/A Rain Light Rain
6:35 AM 36.7 °F 27.2 °F 36.0 °F 97% 29.85 in 5.0 mi ENE 16.1 mph 27.6 mph 0.01 in   Light Drizzle
6:55 AM 36.7 °F 28.0 °F 35.8 °F 97% 29.85 in 10.0 mi ENE 13.8 mph 27.6 mph 0.01 in   Overcast
7:15 AM 36.7 °F 26.6 °F 36.0 °F 97% 29.86 in 3.0 mi ENE 18.4 mph 26.5 mph 0.01 in Rain Light Rain
7:35 AM 36.7 °F 26.3 °F 35.8 °F 97% 29.87 in 7.0 mi ENE 19.6 mph 31.1 mph 0.01 in   Drizzle
7:55 AM 36.5 °F 26.7 °F 35.8 °F 97% 29.86 in 2.5 mi ENE 17.3 mph 26.5 mph 0.04 in Rain Rain
8:15 AM 36.5 °F 26.3 °F 35.8 °F 97% 29.85 in 3.0 mi ENE 18.4 mph 31.1 mph 0.01 in Snow Light Snow
8:35 AM 36.5 °F 25.2 °F 35.8 °F 97% 29.85 in 2.5 mi ENE 23.0 mph 32.2 mph 0.03 in Rain Light Rain
8:55 AM 36.5 °F 26.3 °F 35.8 °F 97% 29.86 in 10.0 mi ENE 18.4 mph 29.9 mph 0.03 in   Overcast
9:15 AM 36.5 °F 26.7 °F 35.6 °F 97% 29.86 in 10.0 mi ENE 17.3 mph 27.6 mph N/A   Overcast
9:35 AM 36.3 °F 26.4 °F 35.2 °F 96% 29.86 in 10.0 mi ENE 17.3 mph 29.9 mph N/A   Overcast
9:55 AM 36.1 °F 25.9 °F 35.2 °F 97% 29.87 in 7.0 mi ENE 18.4 mph 28.8 mph N/A   Overcast
10:15 AM 36.0 °F 26.0 °F 35.2 °F 97% 29.87 in 4.0 mi ENE 17.3 mph 26.5 mph N/A Rain Light Rain
10:35 AM 36.1 °F 25.5 °F 35.4 °F 97% 29.86 in 2.0 mi ENE 19.6 mph 29.9 mph 0.01 in Rain Rain
10:55 AM 35.8 °F 26.1 °F 35.2 °F 98% 29.87 in 1.8 mi ENE 16.1 mph 26.5 mph 0.03 in Rain Light Rain
11:35 AM 35.6 °F 26.2 °F 35.1 °F 98% 29.88 in 5.0 mi ENE 15.0 mph 23.0 mph 0.01 in   Overcast
11:55 AM 35.6 °F 26.2 °F 35.2 °F 99% 29.89 in 2.0 mi ENE 15.0 mph 23.0 mph 0.01 in   Overcast
12:15 PM 35.6 °F 25.5 °F 34.9 °F 97% 29.87 in 2.5 mi ENE 17.3 mph 24.2 mph N/A Rain Light Rain
12:35 PM 35.2 °F 25.8 °F 34.9 °F 99% 29.87 in 2.0 mi ENE 15.0 mph 24.2 mph N/A   Light Drizzle
12:55 PM 35.1 °F 24.8 °F 34.7 °F 99% 29.87 in 3.0 mi ENE 17.3 mph 25.3 mph 0.01 in   Light Drizzle
1:15 PM 35.1 °F 25.2 °F 34.7 °F 99% 29.87 in 2.0 mi ENE 16.1 mph 26.5 mph N/A Rain Light Rain
1:35 PM 35.2 °F 24.4 °F 34.9 °F 99% 29.86 in 2.0 mi ENE 19.6 mph 29.9 mph N/A   Light Drizzle
1:55 PM 35.6 °F 25.2 °F 35.1 °F 98% 29.85 in 1.8 mi ENE 18.4 mph 25.3 mph N/A   Overcast
2:35 PM 35.2 °F 25.4 °F 34.9 °F 99% 29.84 in 1.8 mi ENE 16.1 mph 26.5 mph N/A Rain Light Rain
2:55 PM 35.1 °F 25.5 °F 34.7 °F 99% 29.84 in 1.8 mi ENE 15.0 mph 27.6 mph N/A   Light Drizzle
3:15 PM 35.2 °F 25.0 °F 34.9 °F 99% 29.85 in 1.5 mi ENE 17.3 mph 26.5 mph N/A Rain Light Rain
3:35 PM 35.1 °F 25.5 °F 34.7 °F 99% 29.86 in 2.5 mi ENE 15.0 mph 24.2 mph N/A Rain Light Rain
3:55 PM 35.2 °F 25.4 °F 34.9 °F 99% 29.86 in 1.8 mi ENE 16.1 mph 24.2 mph 0.01 in Rain Light Rain
4:15 PM 35.1 °F 25.2 °F 34.7 °F 99% 29.86 in 2.5 mi ENE 16.1 mph 25.3 mph 0.01 in Rain Light Rain
4:35 PM 35.1 °F 25.5 °F 34.7 °F 99% 29.87 in 2.0 mi ENE 15.0 mph 20.7 mph 0.02 in Rain Light Rain
4:55 PM 35.1 °F 25.2 °F 34.7 °F 99% 29.87 in 2.5 mi ENE 16.1 mph 24.2 mph 0.02 in Snow Light Snow
5:15 PM 35.1 °F 25.2 °F 34.7 °F 99% 29.87 in 3.0 mi ENE 16.1 mph 21.9 mph 0.01 in   Light Drizzle
5:35 PM 35.1 °F 25.5 °F 34.7 °F 99% 29.85 in 3.0 mi ENE 15.0 mph 26.5 mph 0.01 in   Light Drizzle
5:55 PM 35.2 °F 25.4 °F 34.9 °F 99% 29.85 in 4.0 mi ENE 16.1 mph 23.0 mph 0.01 in   Overcast
6:15 PM 35.1 °F 25.2 °F 34.7 °F 99% 29.83 in 10.0 mi NE 16.1 mph 26.5 mph N/A   Overcast
6:35 PM 35.2 °F 26.6 °F 34.9 °F 99% 29.83 in 10.0 mi ENE 12.7 mph 27.6 mph N/A   Overcast
6:55 PM 35.1 °F 25.2 °F 34.9 °F 99% 29.82 in 7.0 mi ENE 16.1 mph 24.2 mph N/A   Overcast
7:15 PM 34.9 °F 25.7 °F 34.7 °F 99% 29.82 in 4.0 mi ENE 13.8 mph 26.5 mph N/A Rain Light Rain
7:35 PM 34.9 °F 25.3 °F 34.7 °F 99% 29.80 in 4.0 mi ENE 15.0 mph 20.7 mph N/A   Light Drizzle
7:55 PM 34.9 °F 25.7 °F 34.7 °F 99% 29.79 in 3.0 mi ENE 13.8 mph 21.9 mph N/A   Overcast
8:15 PM 34.9 °F 25.3 °F 34.7 °F 99% 29.78 in 2.0 mi ENE 15.0 mph 26.5 mph N/A Rain Light Rain
8:35 PM 34.9 °F 24.9 °F 34.7 °F 99% 29.78 in 3.0 mi ENE 16.1 mph 23.0 mph 0.02 in Rain Rain
8:55 PM 34.9 °F 24.9 °F 34.7 °F 99% 29.77 in 2.5 mi ENE 16.1 mph 23.0 mph 0.08 in Rain Light Rain
9:15 PM 35.1 °F 25.5 °F 34.9 °F 99% 29.76 in 4.0 mi ENE 15.0 mph 20.7 mph 0.02 in Rain Rain
9:35 PM 34.9 °F 24.9 °F 34.7 °F 99% 29.74 in 7.0 mi ENE 16.1 mph 24.2 mph 0.03 in Rain Light Rain
9:55 PM 34.9 °F 28.3 °F 34.7 °F 99% 29.75 in 5.0 mi NE 8.1 mph 20.7 mph 0.03 in   Drizzle
10:15 PM 34.9 °F 26.2 °F 34.7 °F 99% 29.75 in 7.0 mi NE 12.7 mph 18.4 mph 0.01 in   Light Drizzle
10:35 PM 34.9 °F 27.1 °F 34.7 °F 99% 29.75 in 5.0 mi NE 10.4 mph 18.4 mph 0.01 in   Drizzle
10:55 PM 35.1 °F 26.9 °F 34.9 °F 99% 29.76 in 2.5 mi NNE 11.5 mph 16.1 mph 0.10 in Rain Rain
11:15 PM 35.6 °F 31.7 °F 35.1 °F 98% 29.78 in 2.5 mi North 4.6 mph 18.4 mph 0.06 in Rain Light Rain
11:35 PM 36.1 °F 28.2 °F 35.6 °F 98% 29.74 in 1.0 mi NE 11.5 mph 16.1 mph 0.33 in Rain Heavy Rain
11:55 PM 36.7 °F 32.9 °F 36.5 °F 99% 29.76 in 1.5 mi NE 4.6 mph - 0.50 in Rain Heavy Rain